Content
SEND FEEDBACK

Daily
Averages
Monthly
Summary
United States of America

DEDEDO, GUAM


Home > North America > United States > Guam
Elevation: 364 feet     Latitude: 13 33N     Longitude: 144 49E

WEATHER
 
SELECT A DAY
Number of Records: 209,106;   Date Range: 1/1/95 - 8/12/14
 
SHARE

PRINT THIS DATA

[ ← Previous Day ]
WEATHER ALMANAC - FEBRUARY 20, 2013
[ Next Day → ]
[ °C ]   °F
Weather ElementAverageHighLow
Temperature80.6 °F86.2 °F (1:54 pm)77.5 °F (6:54 am)
Dewpoint73.7 °F76.8 °F (10:54 am)71.1 °F (4:54 am)
Humidity79.6 %89 % (6:54 am)69 % (1:54 pm)
Barometer29.83 in29.89 in (8:24 am)29.78 in (3:54 pm)
Wind Speed14.3 mph20.7 mph (10:54 am)
Wind Gust27.6 mph (3:54 pm)
Weather ElementAverage
Visibility9.5 mi
Wind DirectionENE (76 °)

Weather ElementTotal
Precipitation0.10 in
Cooling Degree Days16.9 (Base 65)
Growing Degree Days31.9 (Base 50)
Averaged from 25 records on February 20, 2013
WEATHER CONDITIONS BREAKOUT
WIND DIRECTION BREAKOUT
WEATHER BY HOUR - FEBRUARY 20, 2013
[ °C ]   °F
Local TimeTemperatureDewpointHumidityBarometerVisibilityWind DirectionWind SpeedGust SpeedPrecipitationEventsConditions
1:54 AM78.8 °F72.0 °F79 %29.83 in10.0 miEast (80°)12.7 mphPartly Cloudy
2:54 AM78.8 °F72.0 °F79 %29.81 in10.0 miEast (90°)11.5 mph0.00 inPartly Cloudy
3:54 AM78.4 °F72.0 °F80 %29.80 in10.0 miEast (80°)11.5 mphPartly Cloudy
4:54 AM78.1 °F71.1 °F79 %29.81 in10.0 miEast (80°)10.4 mphClear
5:54 AM78.1 °F74.3 °F88 %29.82 in10.0 miEast (80°)13.8 mphMostly Cloudy
6:54 AM77.5 °F73.9 °F89 %29.84 in10.0 miEast (80°)13.8 mph0.00 inMostly Cloudy
7:54 AM79.0 °F73.9 °F84 %29.86 in10.0 miEast (90°)15.0 mph24.2 mphMostly Cloudy
8:04 AM78.8 °F75.2 °F89 %29.88 in10.0 miENE (70°)15.0 mphMostly Cloudy
8:24 AM78.8 °F75.2 °F89 %29.89 in2.0 miEast (80°)17.3 mph26.5 mph0.00 inRainRain
8:31 AM78.8 °F75.2 °F89 %29.89 in7.0 miENE (70°)13.8 mph26.5 mph0.05 inRainLight Rain
8:54 AM79.7 °F75.7 °F88 %29.87 in10.0 miEast (80°)11.5 mph0.05 inScattered Clouds
10:54 AM82.8 °F76.8 °F82 %29.86 in10.0 miEast (80°)20.7 mph26.5 mphMostly Cloudy
11:54 AM84.0 °F75.7 °F76 %29.84 in8.0 miEast (90°)16.1 mph0.00 inRainLight Rain
12:54 PM84.9 °F74.7 °F71 %29.82 in10.0 miEast (80°)18.4 mph0.00 inPartly Cloudy
1:54 PM86.2 °F75.0 °F69 %29.81 in10.0 miENE (70°)16.1 mphScattered Clouds
2:54 PM85.5 °F74.1 °F69 %29.79 in10.0 miENE (70°)19.6 mph25.3 mphScattered Clouds
3:54 PM85.1 °F73.9 °F69 %29.78 in10.0 miEast (90°)15.0 mph27.6 mphScattered Clouds
4:54 PM83.8 °F74.7 °F74 %29.79 in10.0 miENE (60°)19.6 mph25.3 mphScattered Clouds
5:54 PM80.2 °F72.0 °F76 %29.80 in10.0 miENE (70°)13.8 mph0.00 inScattered Clouds
6:54 PM80.2 °F73.0 °F79 %29.81 in10.0 miENE (70°)12.7 mphClear
7:54 PM79.9 °F72.0 °F77 %29.83 in10.0 miENE (70°)13.8 mphPartly Cloudy
8:54 PM79.5 °F72.0 °F78 %29.85 in10.0 miENE (60°)11.5 mphClear
9:54 PM79.3 °F73.0 °F81 %29.86 in10.0 miENE (70°)10.4 mphPartly Cloudy
10:54 PM79.3 °F72.0 °F78 %29.86 in10.0 miENE (70°)11.5 mphClear
11:54 PM79.0 °F72.0 °F79 %29.86 in10.0 miENE (70°)12.7 mphPartly Cloudy
Hourly data recorded from PGUM, located miles away from Dededo, Guam







STORIES FROM OUR PARTNERS